Change the Weather History Date:

Saturday, August 18, 2012

  Actual Average Record
Temperature  
Mean Temperature 58 °F -  
Max Temperature 69 °F 72 °F 91 °F (2003)
Min Temperature 46 °F 50 °F 33 °F (2007)
Degree Days  
Heating Degree Days 8    
Growing Degree Days 8 (Base 50)    
Moisture  
Dew Point 51 °F    
Average Humidity 82    
Maximum Humidity 100    
Minimum Humidity 53    
Precipitation  
Precipitation 0.16 in - - ()
Sea Level Pressure  
Sea Level Pressure 29.96 in    
Wind  
Wind Speed 2 mph (NW)    
Max Wind Speed 9 mph    
Max Gust Speed -    
Visibility 9 miles    
Events Rain , Thunderstorm    
Averages and records for this station are not official NWS values.
T = Trace of Precipitation, MM = Missing Value Source: NWS Daily Summary

Daily Weather History Graph

Daily Weather History Graph

Search for Another Location

Airport or City:

Trip Planner

Search our weather history database for the weather conditions in past years. The results will help you decide how hot, cold, wet, or windy it might be!

Date:

Astronomy

Aug. 18, 2012 Rise Set
Actual Time 6:07 AM CDT 8:13 PM CDT
Civil Twilight 5:33 AM CDT 8:47 PM CDT
Nautical Twilight 4:51 AM CDT 9:28 PM CDT
Astronomical Twilight 4:05 AM CDT 10:15 PM CDT
Moon 7:25 AM CDT (8/18) 8:17 PM CDT (8/18)
Length of Visible Light 15h 13m
Length of Day
14h 06m
New Moon, 1% of the Moon is Illuminated
Aug 18
New Moon
Aug 24
First Quarter
Aug 31
Full
Sep 8
Last Quarter
Sep 15
New

Hourly Weather History & Observations

Time (CDT) Temp. Dew Point Humidity Pressure Visibility Wind Dir Wind Speed Gust Speed Precip Events Conditions
12:12 AM 48.2 °F 46.4 °F 93% 29.97 in 10.0 mi SW 3.5 mph - N/A   Clear
12:33 AM 50.0 °F 46.4 °F 87% 29.97 in 10.0 mi SW 3.5 mph - N/A   Clear
12:53 AM 50.0 °F 46.4 °F 87% 29.97 in 10.0 mi Calm Calm - N/A   Clear
1:12 AM 48.2 °F 44.6 °F 87% 29.96 in 10.0 mi SW 3.5 mph - N/A   Clear
1:33 AM 48.2 °F 46.4 °F 93% 29.96 in 10.0 mi SW 4.6 mph - N/A   Clear
1:53 AM 51.8 °F 46.4 °F 82% 29.96 in 10.0 mi SW 4.6 mph - N/A   Clear
2:12 AM 50.0 °F 46.4 °F 87% 29.95 in 10.0 mi SW 3.5 mph - N/A   Clear
2:33 AM 50.0 °F 46.4 °F 87% 29.95 in 10.0 mi SW 3.5 mph - N/A   Clear
2:53 AM 50.0 °F 46.4 °F 87% 29.95 in 10.0 mi SW 4.6 mph - N/A   Clear
3:12 AM 50.0 °F 46.4 °F 87% 29.95 in 10.0 mi Calm Calm - N/A   Scattered Clouds
3:33 AM 50.0 °F 46.4 °F 87% 29.95 in 10.0 mi Calm Calm - N/A   Mostly Cloudy
3:53 AM 51.8 °F 46.4 °F 82% 29.95 in 10.0 mi SSW 3.5 mph - N/A   Overcast
4:12 AM 51.8 °F 46.4 °F 82% 29.95 in 10.0 mi Calm Calm - N/A   Overcast
4:33 AM 51.8 °F 46.4 °F 82% 29.95 in 10.0 mi SW 3.5 mph - N/A   Overcast
4:53 AM 50.0 °F 46.4 °F 87% 29.95 in 10.0 mi Calm Calm - N/A   Mostly Cloudy
5:12 AM 48.2 °F 46.4 °F 93% 29.95 in 10.0 mi Calm Calm - N/A   Scattered Clouds
5:33 AM 48.2 °F 46.4 °F 93% 29.95 in 10.0 mi Calm Calm - N/A   Clear
5:52 AM 46.4 °F 46.4 °F 100% 29.96 in 10.0 mi Calm Calm - N/A   Scattered Clouds
6:13 AM 48.2 °F 46.4 °F 93% 29.96 in 10.0 mi Calm Calm - N/A   Mostly Cloudy
6:33 AM 50.0 °F 46.4 °F 87% 29.96 in 10.0 mi Calm Calm - N/A   Overcast
6:53 AM 50.0 °F 46.4 °F 87% 29.96 in 10.0 mi Calm Calm - N/A   Overcast
7:13 AM 50.0 °F 48.2 °F 94% 29.96 in 10.0 mi Calm Calm - N/A   Overcast
7:33 AM 51.8 °F 48.2 °F 88% 29.96 in 10.0 mi Calm Calm - N/A   Overcast
7:53 AM 53.6 °F 50.0 °F 88% 29.96 in 10.0 mi Calm Calm - N/A   Overcast
8:12 AM 53.6 °F 50.0 °F 88% 29.96 in 10.0 mi Calm Calm - N/A   Overcast
8:33 AM 53.6 °F 51.8 °F 94% 29.96 in 10.0 mi Calm Calm - N/A   Overcast
8:52 AM 55.4 °F 51.8 °F 88% 29.96 in 10.0 mi Calm Calm - N/A   Overcast
9:13 AM 57.2 °F 53.6 °F 88% 29.96 in 10.0 mi West 3.5 mph - N/A   Overcast
9:33 AM 59.0 °F 51.8 °F 77% 29.96 in 10.0 mi Calm Calm - N/A   Scattered Clouds
9:52 AM 60.8 °F 51.8 °F 72% 29.96 in 10.0 mi Calm Calm - N/A   Scattered Clouds
10:13 AM 62.6 °F 51.8 °F 68% 29.96 in 10.0 mi Calm Calm - N/A   Clear
10:33 AM 64.4 °F 51.8 °F 64% 29.96 in 10.0 mi SE 3.5 mph - N/A   Clear
10:52 AM 64.4 °F 51.8 °F 64% 29.97 in 10.0 mi ENE 5.8 mph - N/A   Clear
11:13 AM 66.2 °F 51.8 °F 60% 29.97 in 10.0 mi ENE 4.6 mph - N/A   Clear
11:33 AM 66.2 °F 51.8 °F 60% 29.97 in 10.0 mi ENE 4.6 mph - N/A   Scattered Clouds
11:52 AM 66.2 °F 51.8 °F 60% 29.96 in 10.0 mi Calm Calm - N/A   Scattered Clouds
12:13 PM 66.2 °F 51.8 °F 60% 29.96 in 10.0 mi North 4.6 mph - N/A   Scattered Clouds
12:32 PM 66.2 °F 51.8 °F 60% 29.96 in 10.0 mi ENE 3.5 mph - N/A   Scattered Clouds
12:53 PM 66.2 °F 51.8 °F 60% 29.96 in 10.0 mi NE 5.8 mph - N/A   Mostly Cloudy
1:13 PM 66.2 °F 53.6 °F 64% 29.95 in 10.0 mi NNE 5.8 mph - N/A   Scattered Clouds
1:32 PM 69.8 °F 51.8 °F 53% 29.95 in 10.0 mi East 9.2 mph - N/A   Scattered Clouds
1:53 PM 68.0 °F 53.6 °F 60% 29.94 in 10.0 mi WNW 4.6 mph - N/A   Scattered Clouds
2:13 PM 66.2 °F 51.8 °F 60% 29.94 in 10.0 mi NNW 6.9 mph - N/A Thunderstorm Scattered Clouds
2:32 PM 68.0 °F 51.8 °F 56% 29.94 in 10.0 mi NNE 6.9 mph - N/A Thunderstorm Mostly Cloudy
2:53 PM 66.2 °F 53.6 °F 64% 29.94 in 10.0 mi NNE 9.2 mph - N/A   Mostly Cloudy
3:13 PM 59.0 °F 55.4 °F 88% 29.94 in 10.0 mi NNE 4.6 mph - 0.15 in Rain , Thunderstorm Thunderstorms and Rain
3:32 PM 62.6 °F 57.2 °F 82% 29.95 in 10.0 mi NNE 4.6 mph - 0.16 in Rain , Thunderstorm Light Thunderstorms and Rain
3:53 PM 62.6 °F 55.4 °F 77% 29.95 in 10.0 mi NE 3.5 mph - 0.16 in   Scattered Clouds
4:13 PM 64.4 °F 55.4 °F 73% 29.95 in 10.0 mi Calm Calm - N/A   Scattered Clouds
4:32 PM 64.4 °F 55.4 °F 73% 29.95 in 10.0 mi Calm Calm - N/A Rain Light Rain
4:53 PM 62.6 °F 55.4 °F 77% 29.95 in 10.0 mi Calm Calm - N/A   Scattered Clouds
5:13 PM 62.6 °F 57.2 °F 82% 29.95 in 10.0 mi Calm Calm - N/A   Clear
5:32 PM 62.6 °F 57.2 °F 82% 29.95 in 10.0 mi Calm Calm - N/A Rain Light Rain
5:53 PM 62.6 °F 57.2 °F 82% 29.95 in 10.0 mi Calm Calm - N/A   Clear
6:13 PM 60.8 °F 57.2 °F 88% 29.95 in 10.0 mi West 3.5 mph - N/A   Clear
6:33 PM 60.8 °F 57.2 °F 88% 29.95 in 10.0 mi West 3.5 mph - N/A   Clear
6:53 PM 62.6 °F 57.2 °F 82% 29.95 in 10.0 mi West 4.6 mph - N/A   Scattered Clouds
7:12 PM 60.8 °F 57.2 °F 88% 29.95 in 10.0 mi Calm Calm - N/A   Scattered Clouds
7:33 PM 60.8 °F 55.4 °F 82% 29.95 in 10.0 mi Calm Calm - N/A   Scattered Clouds
7:53 PM 59.0 °F 55.4 °F 88% 29.96 in 10.0 mi WNW 3.5 mph - N/A   Scattered Clouds
8:12 PM 59.0 °F 55.4 °F 88% 29.96 in 10.0 mi Calm Calm - N/A   Clear
8:33 PM 57.2 °F 55.4 °F 94% 29.96 in 10.0 mi Calm Calm - N/A   Scattered Clouds
8:51 PM 55.4 °F 53.6 °F 94% 29.97 in 10.0 mi Calm Calm - N/A   Scattered Clouds
9:13 PM 55.4 °F 53.6 °F 94% 29.98 in 10.0 mi Calm Calm - N/A   Clear
9:33 PM 51.8 °F 51.8 °F 100% 29.99 in 4.0 mi Calm Calm - N/A   Clear
9:53 PM 51.8 °F 51.8 °F 100% 29.99 in 10.0 mi Calm Calm - N/A   Clear
10:13 PM 50.0 °F 50.0 °F 100% 29.99 in 1.0 mi Calm Calm - N/A   Mist
10:32 PM 50.0 °F 48.2 °F 94% 29.99 in 1.8 mi Calm Calm - N/A   Mist
10:53 PM 48.2 °F 48.2 °F 100% 30.00 in 1.0 mi Calm Calm - N/A   Mist
11:13 PM 48.2 °F 48.2 °F 100% 30.00 in 1.2 mi Calm Calm - N/A   Mist
11:32 PM 46.4 °F 46.4 °F 100% 30.00 in 7.0 mi Calm Calm - N/A   Clear
11:53 PM 46.4 °F 44.6 °F 93% 30.00 in 5.0 mi Calm Calm - N/A   Clear